Year,Month,Day,Hour,Minute,Value (Times are PST for temperature in C)
2019,08,04,00,00,13.40
2019,08,04,00,01,13.40
2019,08,04,00,02,13.40
2019,08,04,00,03,13.40
2019,08,04,00,04,13.40
2019,08,04,00,05,13.40
2019,08,04,00,06,13.40
2019,08,04,00,07,13.40
2019,08,04,00,08,13.40
2019,08,04,00,09,13.40
2019,08,04,00,10,13.40
2019,08,04,00,11,13.40
2019,08,04,00,12,13.40
2019,08,04,00,13,13.40
2019,08,04,00,14,13.40
2019,08,04,00,15,13.40
2019,08,04,00,16,13.40
2019,08,04,00,17,13.40
2019,08,04,00,18,13.40
2019,08,04,00,19,13.40
2019,08,04,00,20,13.30
2019,08,04,00,21,13.30
2019,08,04,00,22,13.30
2019,08,04,00,23,13.30
2019,08,04,00,24,13.30
2019,08,04,00,25,13.30
2019,08,04,00,26,13.30
2019,08,04,00,27,13.30
2019,08,04,00,28,13.30
2019,08,04,00,29,13.20
2019,08,04,00,30,13.20
2019,08,04,00,31,13.20
2019,08,04,00,32,13.20
2019,08,04,00,33,13.20
2019,08,04,00,34,13.20
2019,08,04,00,35,13.20
2019,08,04,00,36,13.20
2019,08,04,00,37,13.20
2019,08,04,00,38,13.20
2019,08,04,00,39,13.20
2019,08,04,00,40,13.20
2019,08,04,00,41,13.20
2019,08,04,00,42,13.20
2019,08,04,00,43,13.20
2019,08,04,00,44,13.20
2019,08,04,00,45,13.20
2019,08,04,00,46,13.20
2019,08,04,00,47,13.20
2019,08,04,00,48,13.20
2019,08,04,00,49,13.20
2019,08,04,00,50,13.20
2019,08,04,00,51,13.20
2019,08,04,00,52,13.30
2019,08,04,00,53,13.30
2019,08,04,00,54,13.30
2019,08,04,00,55,13.30
2019,08,04,00,56,13.30
2019,08,04,00,57,13.30
2019,08,04,00,58,13.30
2019,08,04,00,59,13.30
2019,08,04,01,00,13.30
2019,08,04,01,01,13.30
2019,08,04,01,02,13.30
2019,08,04,01,03,13.30
2019,08,04,01,04,13.30
2019,08,04,01,05,13.40
2019,08,04,01,06,13.40
2019,08,04,01,07,13.40
2019,08,04,01,08,13.40
2019,08,04,01,09,13.50
2019,08,04,01,10,13.50
2019,08,04,01,11,13.50
2019,08,04,01,12,13.50
2019,08,04,01,13,13.50
2019,08,04,01,14,13.50
2019,08,04,01,15,13.50
2019,08,04,01,16,13.50
2019,08,04,01,17,13.50
2019,08,04,01,18,13.50
2019,08,04,01,19,13.40
2019,08,04,01,20,13.40
2019,08,04,01,21,13.40
2019,08,04,01,22,13.40
2019,08,04,01,23,13.40
2019,08,04,01,24,13.40
2019,08,04,01,25,13.30
2019,08,04,01,26,13.30
2019,08,04,01,27,13.30
2019,08,04,01,28,13.30
2019,08,04,01,29,13.30
2019,08,04,01,30,13.30
2019,08,04,01,31,13.30
2019,08,04,01,32,13.30
2019,08,04,01,33,13.30
2019,08,04,01,34,13.30
2019,08,04,01,35,13.30
2019,08,04,01,36,13.30
2019,08,04,01,37,13.40
2019,08,04,01,38,13.40
2019,08,04,01,39,13.40
2019,08,04,01,40,13.40
2019,08,04,01,41,13.40
2019,08,04,01,42,13.40
2019,08,04,01,43,13.40
2019,08,04,01,44,13.40
2019,08,04,01,45,13.40
2019,08,04,01,46,13.40
2019,08,04,01,47,13.50
2019,08,04,01,48,13.50
2019,08,04,01,49,13.50
2019,08,04,01,50,13.60
2019,08,04,01,51,13.60
2019,08,04,01,52,13.60
2019,08,04,01,53,13.60
2019,08,04,01,54,13.60
2019,08,04,01,55,13.60
2019,08,04,01,56,13.50
2019,08,04,01,57,13.50
2019,08,04,01,58,13.50
2019,08,04,01,59,13.50
2019,08,04,02,00,13.40
2019,08,04,02,01,13.40
2019,08,04,02,02,13.40
2019,08,04,02,03,13.40
2019,08,04,02,04,13.40
2019,08,04,02,05,13.50
2019,08,04,02,06,13.50
2019,08,04,02,07,13.50
2019,08,04,02,08,13.50
2019,08,04,02,09,13.50
2019,08,04,02,10,13.50
2019,08,04,02,11,13.50
2019,08,04,02,12,13.50
2019,08,04,02,13,13.50
2019,08,04,02,14,13.50
2019,08,04,02,15,13.50
2019,08,04,02,16,13.50
2019,08,04,02,17,13.50
2019,08,04,02,18,13.50
2019,08,04,02,19,13.40
2019,08,04,02,20,13.40
2019,08,04,02,21,13.40
2019,08,04,02,22,13.40
2019,08,04,02,23,13.40
2019,08,04,02,24,13.40
2019,08,04,02,25,13.40
2019,08,04,02,26,13.40
2019,08,04,02,27,13.30
2019,08,04,02,28,13.30
2019,08,04,02,29,13.30
2019,08,04,02,30,13.30
2019,08,04,02,31,13.40
2019,08,04,02,32,13.40
2019,08,04,02,33,13.40
2019,08,04,02,34,13.40
2019,08,04,02,35,13.40
2019,08,04,02,36,13.40
2019,08,04,02,37,13.40
2019,08,04,02,38,13.40
2019,08,04,02,39,13.40
2019,08,04,02,40,13.30
2019,08,04,02,41,13.30
2019,08,04,02,42,13.30
2019,08,04,02,43,13.30
2019,08,04,02,44,13.30
2019,08,04,02,45,13.30
2019,08,04,02,46,13.20
2019,08,04,02,47,13.20
2019,08,04,02,48,13.20
2019,08,04,02,49,13.20
2019,08,04,02,50,13.20
2019,08,04,02,51,13.10
2019,08,04,02,52,13.10
2019,08,04,02,53,13.10
2019,08,04,02,54,13.10
2019,08,04,02,55,13.10
2019,08,04,02,56,13.10
2019,08,04,02,57,13.00
2019,08,04,02,58,13.00
2019,08,04,02,59,13.00
2019,08,04,03,00,13.00
2019,08,04,03,01,12.90
2019,08,04,03,02,12.90
2019,08,04,03,03,12.90
2019,08,04,03,04,12.90
2019,08,04,03,05,12.90
2019,08,04,03,06,12.90
2019,08,04,03,07,12.80
2019,08,04,03,08,12.80
2019,08,04,03,09,12.80
2019,08,04,03,10,12.80
2019,08,04,03,11,12.80
2019,08,04,03,12,12.80
2019,08,04,03,13,12.80
2019,08,04,03,14,12.80
2019,08,04,03,15,12.90
2019,08,04,03,16,12.90
2019,08,04,03,17,12.90
2019,08,04,03,18,12.90
2019,08,04,03,19,12.90
2019,08,04,03,20,12.90
2019,08,04,03,21,12.90
2019,08,04,03,22,13.00
2019,08,04,03,23,13.00
2019,08,04,03,24,13.00
2019,08,04,03,25,13.00
2019,08,04,03,26,13.00
2019,08,04,03,27,13.00
2019,08,04,03,28,12.90
2019,08,04,03,29,12.90
2019,08,04,03,30,12.90
2019,08,04,03,31,12.90
2019,08,04,03,32,12.90
2019,08,04,03,33,12.90
2019,08,04,03,34,12.90
2019,08,04,03,35,12.80
2019,08,04,03,36,12.80
2019,08,04,03,37,12.80
2019,08,04,03,38,12.80
2019,08,04,03,39,12.80
2019,08,04,03,40,12.80
2019,08,04,03,41,12.70
2019,08,04,03,42,12.70
2019,08,04,03,43,12.70
2019,08,04,03,44,12.70
2019,08,04,03,45,12.70
2019,08,04,03,46,12.70
2019,08,04,03,47,12.70
2019,08,04,03,48,12.70
2019,08,04,03,49,12.70
2019,08,04,03,50,12.60
2019,08,04,03,51,12.60
2019,08,04,03,52,12.60
2019,08,04,03,53,12.60
2019,08,04,03,54,12.50
2019,08,04,03,55,12.50
2019,08,04,03,56,12.50
2019,08,04,03,57,12.50
2019,08,04,03,58,12.40
2019,08,04,03,59,12.40
2019,08,04,04,00,12.40
2019,08,04,04,01,12.40
2019,08,04,04,02,12.40
2019,08,04,04,03,12.40
2019,08,04,04,04,12.40
2019,08,04,04,05,12.50
2019,08,04,04,06,12.50
2019,08,04,04,07,12.50
2019,08,04,04,08,12.50
2019,08,04,04,09,12.50
2019,08,04,04,10,12.50
2019,08,04,04,11,12.50
2019,08,04,04,12,12.50
2019,08,04,04,13,12.50
2019,08,04,04,14,12.60
2019,08,04,04,15,12.60
2019,08,04,04,16,12.60
2019,08,04,04,17,12.60
2019,08,04,04,18,12.60
2019,08,04,04,19,12.60
2019,08,04,04,20,12.60
2019,08,04,04,21,12.60
2019,08,04,04,22,12.60
2019,08,04,04,23,12.60
2019,08,04,04,24,12.60
2019,08,04,04,25,12.60
2019,08,04,04,26,12.60
2019,08,04,04,27,12.60
2019,08,04,04,28,12.60
2019,08,04,04,29,12.60
2019,08,04,04,30,12.50
2019,08,04,04,31,12.50
2019,08,04,04,32,12.50
2019,08,04,04,33,12.50
2019,08,04,04,34,12.50
2019,08,04,04,35,12.40
2019,08,04,04,36,12.40
2019,08,04,04,37,12.50
2019,08,04,04,38,12.50
2019,08,04,04,39,12.50
2019,08,04,04,40,12.50
2019,08,04,04,41,12.50
2019,08,04,04,42,12.50
2019,08,04,04,43,12.60
2019,08,04,04,44,12.60
2019,08,04,04,45,12.60
2019,08,04,04,46,12.60
2019,08,04,04,47,12.60
2019,08,04,04,48,12.60
2019,08,04,04,49,12.60
2019,08,04,04,50,12.60
2019,08,04,04,51,12.60
2019,08,04,04,52,12.60
2019,08,04,04,53,12.50
2019,08,04,04,54,12.50
2019,08,04,04,55,12.50
2019,08,04,04,56,12.40
2019,08,04,04,57,12.40
2019,08,04,04,58,12.40
2019,08,04,04,59,12.40
2019,08,04,05,00,12.30
2019,08,04,05,01,12.30
2019,08,04,05,02,12.30
2019,08,04,05,03,12.30
2019,08,04,05,04,12.30
2019,08,04,05,05,12.30
2019,08,04,05,06,12.20
2019,08,04,05,07,12.20
2019,08,04,05,08,12.20
2019,08,04,05,09,12.20
2019,08,04,05,10,12.20
2019,08,04,05,11,12.20
2019,08,04,05,12,12.20
2019,08,04,05,13,12.20
2019,08,04,05,14,12.20
2019,08,04,05,15,12.20
2019,08,04,05,16,12.20
2019,08,04,05,17,12.20
2019,08,04,05,18,12.20
2019,08,04,05,19,12.20
2019,08,04,05,20,12.30
2019,08,04,05,21,12.30
2019,08,04,05,22,12.30
2019,08,04,05,23,12.30
2019,08,04,05,24,12.30
2019,08,04,05,25,12.30
2019,08,04,05,26,12.30
2019,08,04,05,27,12.30
2019,08,04,05,28,12.30
2019,08,04,05,29,12.30
2019,08,04,05,30,12.30
2019,08,04,05,31,12.20
2019,08,04,05,32,12.20
2019,08,04,05,33,12.20
2019,08,04,05,34,12.20
2019,08,04,05,35,12.20
2019,08,04,05,36,12.20
2019,08,04,05,37,12.20
2019,08,04,05,38,12.20
2019,08,04,05,39,12.20
2019,08,04,05,40,12.20
2019,08,04,05,41,12.20
2019,08,04,05,42,12.20
2019,08,04,05,43,12.10
2019,08,04,05,44,12.10
2019,08,04,05,45,12.10
2019,08,04,05,46,12.10
2019,08,04,05,47,12.10
2019,08,04,05,48,12.10
2019,08,04,05,49,12.10
2019,08,04,05,50,12.10
2019,08,04,05,51,12.10
2019,08,04,05,52,12.10
2019,08,04,05,53,12.10
2019,08,04,05,54,12.10
2019,08,04,05,55,12.10
2019,08,04,05,56,12.10
2019,08,04,05,57,12.10
2019,08,04,05,58,12.10
2019,08,04,05,59,12.10
2019,08,04,06,00,12.10
2019,08,04,06,01,12.20
2019,08,04,06,02,12.20
2019,08,04,06,03,12.20
2019,08,04,06,04,12.20
2019,08,04,06,05,12.20
2019,08,04,06,06,12.20
2019,08,04,06,07,12.20
2019,08,04,06,08,12.20
2019,08,04,06,09,12.20
2019,08,04,06,10,12.20
2019,08,04,06,11,12.10
2019,08,04,06,12,12.10
2019,08,04,06,13,12.10
2019,08,04,06,14,12.10
2019,08,04,06,15,12.10
2019,08,04,06,16,12.10
2019,08,04,06,17,12.10
2019,08,04,06,18,12.10
2019,08,04,06,19,12.10
2019,08,04,06,20,12.20
2019,08,04,06,21,12.20
2019,08,04,06,22,12.20
2019,08,04,06,23,12.20
2019,08,04,06,24,12.20
2019,08,04,06,25,12.30
2019,08,04,06,26,12.30
2019,08,04,06,27,12.30
2019,08,04,06,28,12.40
2019,08,04,06,29,12.40
2019,08,04,06,30,12.40
2019,08,04,06,31,12.50
2019,08,04,06,32,12.50
2019,08,04,06,33,12.60
2019,08,04,06,34,12.60
2019,08,04,06,35,12.60
2019,08,04,06,36,12.60
2019,08,04,06,37,12.60
2019,08,04,06,38,12.60
2019,08,04,06,39,12.60
2019,08,04,06,40,12.60
2019,08,04,06,41,12.70
2019,08,04,06,42,12.70
2019,08,04,06,43,12.80
2019,08,04,06,44,12.80
2019,08,04,06,45,12.80
2019,08,04,06,46,12.90
2019,08,04,06,47,12.90
2019,08,04,06,48,13.00
2019,08,04,06,49,13.00
2019,08,04,06,50,13.10
2019,08,04,06,51,13.20
2019,08,04,06,52,13.20
2019,08,04,06,53,13.30
2019,08,04,06,54,13.30
2019,08,04,06,55,13.40
2019,08,04,06,56,13.50
2019,08,04,06,57,13.60
2019,08,04,06,58,13.60
2019,08,04,06,59,13.70
2019,08,04,07,00,13.70
2019,08,04,07,01,13.80
2019,08,04,07,02,13.90
2019,08,04,07,03,13.90
2019,08,04,07,04,13.90
2019,08,04,07,05,13.90
2019,08,04,07,06,13.90
2019,08,04,07,07,14.00
2019,08,04,07,08,14.00
2019,08,04,07,09,14.10
2019,08,04,07,10,14.10
2019,08,04,07,11,14.20
2019,08,04,07,12,14.20
2019,08,04,07,13,14.30
2019,08,04,07,14,14.30
2019,08,04,07,15,14.30
2019,08,04,07,16,14.40
2019,08,04,07,17,14.40
2019,08,04,07,18,14.40
2019,08,04,07,19,14.40
2019,08,04,07,20,14.50
2019,08,04,07,21,14.50
2019,08,04,07,22,14.60
2019,08,04,07,23,14.60
2019,08,04,07,24,14.60
2019,08,04,07,25,14.60
2019,08,04,07,26,14.60
2019,08,04,07,27,14.60
2019,08,04,07,28,14.60
2019,08,04,07,29,14.60
2019,08,04,07,30,14.70
2019,08,04,07,31,14.80
2019,08,04,07,32,14.80
2019,08,04,07,33,14.90
2019,08,04,07,34,15.00
2019,08,04,07,35,15.00
2019,08,04,07,36,15.10
2019,08,04,07,37,15.20
2019,08,04,07,38,15.20
2019,08,04,07,39,15.30
2019,08,04,07,40,15.30
2019,08,04,07,41,15.40
2019,08,04,07,42,15.50
2019,08,04,07,43,15.60
2019,08,04,07,44,15.70
2019,08,04,07,45,15.80
2019,08,04,07,46,15.90
2019,08,04,07,47,16.00
2019,08,04,07,48,16.00
2019,08,04,07,49,16.10
2019,08,04,07,50,16.20
2019,08,04,07,51,16.30
2019,08,04,07,52,16.30
2019,08,04,07,53,16.40
2019,08,04,07,54,16.40
2019,08,04,07,55,16.40
2019,08,04,07,56,16.30
2019,08,04,07,57,16.30
2019,08,04,07,58,16.30
2019,08,04,07,59,16.30
2019,08,04,08,00,16.30
2019,08,04,08,01,16.30
2019,08,04,08,02,16.30
2019,08,04,08,03,16.30
2019,08,04,08,04,16.40
2019,08,04,08,05,16.40
2019,08,04,08,06,16.50
2019,08,04,08,07,16.50
2019,08,04,08,08,16.60
2019,08,04,08,09,16.60
2019,08,04,08,10,16.60
2019,08,04,08,11,16.70
2019,08,04,08,12,16.70
2019,08,04,08,13,16.80
2019,08,04,08,14,16.90
2019,08,04,08,15,16.90
2019,08,04,08,16,17.00
2019,08,04,08,17,17.10
2019,08,04,08,18,17.10
2019,08,04,08,19,17.20
2019,08,04,08,20,17.20
2019,08,04,08,21,17.20
2019,08,04,08,22,17.30
2019,08,04,08,23,17.30
2019,08,04,08,24,17.30
2019,08,04,08,25,17.30
2019,08,04,08,26,17.30
2019,08,04,08,27,17.30
2019,08,04,08,28,17.30
2019,08,04,08,29,17.40
2019,08,04,08,30,17.40
2019,08,04,08,31,17.50
2019,08,04,08,32,17.60
2019,08,04,08,33,17.60
2019,08,04,08,34,17.70
2019,08,04,08,35,17.80
2019,08,04,08,36,17.80
2019,08,04,08,37,17.90
2019,08,04,08,38,18.00
2019,08,04,08,39,18.10
2019,08,04,08,40,18.10
2019,08,04,08,41,18.20
2019,08,04,08,42,18.20
2019,08,04,08,43,18.30
2019,08,04,08,44,18.30
2019,08,04,08,45,18.40
2019,08,04,08,46,18.40
2019,08,04,08,47,18.50
2019,08,04,08,48,18.60
2019,08,04,08,49,18.70
2019,08,04,08,50,18.70
2019,08,04,08,51,18.80
2019,08,04,08,52,18.90
2019,08,04,08,53,19.00
2019,08,04,08,54,19.10
2019,08,04,08,55,19.20
2019,08,04,08,56,19.20
2019,08,04,08,57,19.30
2019,08,04,08,58,19.40
2019,08,04,08,59,19.40
2019,08,04,09,00,19.50
2019,08,04,09,01,19.50
2019,08,04,09,02,19.60
2019,08,04,09,03,19.60
2019,08,04,09,04,19.70
2019,08,04,09,05,19.70
2019,08,04,09,06,19.70
2019,08,04,09,07,19.80
2019,08,04,09,08,19.80
2019,08,04,09,09,19.80
2019,08,04,09,10,19.80
2019,08,04,09,11,19.90
2019,08,04,09,12,19.90
2019,08,04,09,13,19.90
2019,08,04,09,14,19.90
2019,08,04,09,15,19.90
2019,08,04,09,16,19.90
2019,08,04,09,17,19.90
2019,08,04,09,18,20.00
2019,08,04,09,19,20.00
2019,08,04,09,20,20.10
2019,08,04,09,21,20.10
2019,08,04,09,22,20.20
2019,08,04,09,23,20.20
2019,08,04,09,24,20.30
2019,08,04,09,25,20.30
2019,08,04,09,26,20.40
2019,08,04,09,27,20.40
2019,08,04,09,28,20.50
2019,08,04,09,29,20.60
2019,08,04,09,30,20.60
2019,08,04,09,31,20.70
2019,08,04,09,32,20.70
2019,08,04,09,33,20.80
2019,08,04,09,34,20.80
2019,08,04,09,35,20.80
2019,08,04,09,36,20.80
2019,08,04,09,37,20.90
2019,08,04,09,38,20.90
2019,08,04,09,39,20.90
2019,08,04,09,40,20.90
2019,08,04,09,41,21.00
2019,08,04,09,42,21.00
2019,08,04,09,43,21.00
2019,08,04,09,44,21.00
2019,08,04,09,45,21.00
2019,08,04,09,46,21.10
2019,08,04,09,47,21.10
2019,08,04,09,48,21.10
2019,08,04,09,49,21.10
2019,08,04,09,50,21.10
2019,08,04,09,51,21.10
2019,08,04,09,52,21.10
2019,08,04,09,53,21.10
2019,08,04,09,54,21.10
2019,08,04,09,55,21.10
2019,08,04,09,56,21.10
2019,08,04,09,57,21.10
2019,08,04,09,58,21.10
2019,08,04,09,59,21.10
2019,08,04,10,00,21.10
2019,08,04,10,01,21.10
2019,08,04,10,02,21.10
2019,08,04,10,03,21.10
2019,08,04,10,04,21.10
2019,08,04,10,05,21.10
2019,08,04,10,06,21.10
2019,08,04,10,07,21.10
2019,08,04,10,08,21.20
2019,08,04,10,09,21.20
2019,08,04,10,10,21.20
2019,08,04,10,11,21.20
2019,08,04,10,12,21.30
2019,08,04,10,13,21.30
2019,08,04,10,14,21.30
2019,08,04,10,15,21.30
2019,08,04,10,16,21.30
2019,08,04,10,17,21.30
2019,08,04,10,18,21.30
2019,08,04,10,19,21.30
2019,08,04,10,20,21.20
2019,08,04,10,21,21.20
2019,08,04,10,22,21.20
2019,08,04,10,23,21.20
2019,08,04,10,24,21.20
2019,08,04,10,25,21.20
2019,08,04,10,26,21.20
2019,08,04,10,27,21.10
2019,08,04,10,28,21.10
2019,08,04,10,29,21.00
2019,08,04,10,30,20.90
2019,08,04,10,31,20.90
2019,08,04,10,32,20.80
2019,08,04,10,33,20.80
2019,08,04,10,34,20.80
2019,08,04,10,35,20.80
2019,08,04,10,36,20.80
2019,08,04,10,37,20.90
2019,08,04,10,38,20.90
2019,08,04,10,39,20.90
2019,08,04,10,40,20.90
2019,08,04,10,41,21.00
2019,08,04,10,42,21.00
2019,08,04,10,43,21.10
2019,08,04,10,44,21.10
2019,08,04,10,45,21.10
2019,08,04,10,46,21.10
2019,08,04,10,47,21.10
2019,08,04,10,48,21.20
2019,08,04,10,49,21.20
2019,08,04,10,50,21.30
2019,08,04,10,51,21.30
2019,08,04,10,52,21.30
2019,08,04,10,53,21.40
2019,08,04,10,54,21.40
2019,08,04,10,55,21.40
2019,08,04,10,56,21.50
2019,08,04,10,57,21.50
2019,08,04,10,58,21.60
2019,08,04,10,59,21.60
2019,08,04,11,00,21.60
2019,08,04,11,01,21.60
2019,08,04,11,02,21.70
2019,08,04,11,03,21.70
2019,08,04,11,04,21.70
2019,08,04,11,05,21.60
2019,08,04,11,06,21.60
2019,08,04,11,07,21.60
2019,08,04,11,08,21.60
2019,08,04,11,09,21.60
2019,08,04,11,10,21.50
2019,08,04,11,11,21.50
2019,08,04,11,12,21.40
2019,08,04,11,13,21.30
2019,08,04,11,14,21.30
2019,08,04,11,15,21.20
2019,08,04,11,16,21.10
2019,08,04,11,17,21.00
2019,08,04,11,18,20.90
2019,08,04,11,19,20.90
2019,08,04,11,20,20.80
2019,08,04,11,21,20.80
2019,08,04,11,22,20.70
2019,08,04,11,23,20.70
2019,08,04,11,24,20.70
2019,08,04,11,25,20.60
2019,08,04,11,26,20.60
2019,08,04,11,27,20.60
2019,08,04,11,28,20.60
2019,08,04,11,29,20.60
2019,08,04,11,30,20.60
2019,08,04,11,31,20.50
2019,08,04,11,32,20.60
2019,08,04,11,33,20.60
2019,08,04,11,34,20.60
2019,08,04,11,35,20.60
2019,08,04,11,36,20.60
2019,08,04,11,37,20.60
2019,08,04,11,38,20.60
2019,08,04,11,39,20.60
2019,08,04,11,40,20.60
2019,08,04,11,41,20.60
2019,08,04,11,42,20.60
2019,08,04,11,43,20.60
2019,08,04,11,44,20.70
2019,08,04,11,45,20.70
2019,08,04,11,46,20.70
2019,08,04,11,47,20.70
2019,08,04,11,48,20.70
2019,08,04,11,49,20.70
2019,08,04,11,50,20.80
2019,08,04,11,51,20.80
2019,08,04,11,52,20.80
2019,08,04,11,53,20.90
2019,08,04,11,54,21.00
2019,08,04,11,55,21.00
2019,08,04,11,56,21.10
2019,08,04,11,57,21.20
2019,08,04,11,58,21.30
2019,08,04,11,59,21.30
2019,08,04,12,00,21.30
2019,08,04,12,01,21.40
2019,08,04,12,02,21.40
2019,08,04,12,03,21.50
2019,08,04,12,04,21.50
2019,08,04,12,05,21.50
2019,08,04,12,06,21.40
2019,08,04,12,07,21.40
2019,08,04,12,08,21.40
2019,08,04,12,09,21.40
2019,08,04,12,10,21.40
2019,08,04,12,11,21.40
2019,08,04,12,12,21.40
2019,08,04,12,13,21.40
2019,08,04,12,14,21.40
2019,08,04,12,15,21.40
2019,08,04,12,16,21.40
2019,08,04,12,17,21.40
2019,08,04,12,18,21.40
2019,08,04,12,19,21.40
2019,08,04,12,20,21.50
2019,08,04,12,21,21.50
2019,08,04,12,22,21.60
2019,08,04,12,23,21.60
2019,08,04,12,24,21.60
2019,08,04,12,25,21.70
2019,08,04,12,26,21.70
2019,08,04,12,27,21.70
2019,08,04,12,28,21.70
2019,08,04,12,29,21.70
2019,08,04,12,30,21.70
2019,08,04,12,31,21.70
2019,08,04,12,32,21.70
2019,08,04,12,33,21.70
2019,08,04,12,34,21.70
2019,08,04,12,35,21.70
2019,08,04,12,36,21.70
2019,08,04,12,37,21.70
2019,08,04,12,38,21.70
2019,08,04,12,39,21.70
2019,08,04,12,40,21.80
2019,08,04,12,41,21.80
2019,08,04,12,42,21.80
2019,08,04,12,43,21.80
2019,08,04,12,44,21.80
2019,08,04,12,45,21.80
2019,08,04,12,46,21.80
2019,08,04,12,47,21.80
2019,08,04,12,48,21.80
2019,08,04,12,49,21.80
2019,08,04,12,50,21.80
2019,08,04,12,51,21.80
2019,08,04,12,52,21.80
2019,08,04,12,53,21.80
2019,08,04,12,54,21.80
2019,08,04,12,55,21.80
2019,08,04,12,56,21.90
2019,08,04,12,57,21.90
2019,08,04,12,58,21.90
2019,08,04,12,59,21.90
2019,08,04,13,00,21.90
2019,08,04,13,01,21.90
2019,08,04,13,02,21.90
2019,08,04,13,03,21.90
2019,08,04,13,04,21.90
2019,08,04,13,05,22.00
2019,08,04,13,06,22.00
2019,08,04,13,07,22.00
2019,08,04,13,08,22.00
2019,08,04,13,09,22.00
2019,08,04,13,10,22.00
2019,08,04,13,11,22.00
2019,08,04,13,12,22.00
2019,08,04,13,13,21.90
2019,08,04,13,14,21.90
2019,08,04,13,15,21.90
2019,08,04,13,16,21.90
2019,08,04,13,17,21.90
2019,08,04,13,18,22.00
2019,08,04,13,19,22.00
2019,08,04,13,20,22.00
2019,08,04,13,21,21.90
2019,08,04,13,22,21.90
2019,08,04,13,23,21.90
2019,08,04,13,24,21.90
2019,08,04,13,25,21.90
2019,08,04,13,26,21.90
2019,08,04,13,27,21.90
2019,08,04,13,28,21.90
2019,08,04,13,29,22.00
2019,08,04,13,30,22.00
2019,08,04,13,31,22.00
2019,08,04,13,32,22.00
2019,08,04,13,33,22.10
2019,08,04,13,34,22.10
2019,08,04,13,35,22.10
2019,08,04,13,36,22.10
2019,08,04,13,37,22.10
2019,08,04,13,38,22.20
2019,08,04,13,39,22.20
2019,08,04,13,40,22.20
2019,08,04,13,41,22.30
2019,08,04,13,42,22.30
2019,08,04,13,43,22.30
2019,08,04,13,44,22.30
2019,08,04,13,45,22.40
2019,08,04,13,46,22.40
2019,08,04,13,47,22.40
2019,08,04,13,48,22.40
2019,08,04,13,49,22.50
2019,08,04,13,50,22.50
2019,08,04,13,51,22.60
2019,08,04,13,52,22.60
2019,08,04,13,53,22.60
2019,08,04,13,54,22.60
2019,08,04,13,55,22.70
2019,08,04,13,56,22.70
2019,08,04,13,57,22.70
2019,08,04,13,58,22.70
2019,08,04,13,59,22.70
2019,08,04,14,00,22.70
2019,08,04,14,01,22.80
2019,08,04,14,02,22.80
2019,08,04,14,03,22.80
2019,08,04,14,04,22.80
2019,08,04,14,05,22.80
2019,08,04,14,06,22.80
2019,08,04,14,07,22.90
2019,08,04,14,08,22.90
2019,08,04,14,09,22.90
2019,08,04,14,10,22.90
2019,08,04,14,11,22.90
2019,08,04,14,12,22.90
2019,08,04,14,13,23.00
2019,08,04,14,14,23.00
2019,08,04,14,15,23.00
2019,08,04,14,16,23.10
2019,08,04,14,17,23.10
2019,08,04,14,18,23.10
2019,08,04,14,19,23.10
2019,08,04,14,20,23.20
2019,08,04,14,21,23.20
2019,08,04,14,22,23.20
2019,08,04,14,23,23.20
2019,08,04,14,24,23.20
2019,08,04,14,25,23.20
2019,08,04,14,26,23.20
2019,08,04,14,27,23.30
2019,08,04,14,28,23.30
2019,08,04,14,29,23.30
2019,08,04,14,30,23.30
2019,08,04,14,31,23.30
2019,08,04,14,32,23.40
2019,08,04,14,33,23.40
2019,08,04,14,34,23.40
2019,08,04,14,35,23.50
2019,08,04,14,36,23.50
2019,08,04,14,37,23.60
2019,08,04,14,38,23.60
2019,08,04,14,39,23.60
2019,08,04,14,40,23.70
2019,08,04,14,41,23.70
2019,08,04,14,42,23.70
2019,08,04,14,43,23.70
2019,08,04,14,44,23.70
2019,08,04,14,45,23.70
2019,08,04,14,46,23.80
2019,08,04,14,47,23.80
2019,08,04,14,48,23.80
2019,08,04,14,49,23.80
2019,08,04,14,50,23.80
2019,08,04,14,51,23.80
2019,08,04,14,52,23.80
2019,08,04,14,53,23.90
2019,08,04,14,54,23.90
2019,08,04,14,55,23.90
2019,08,04,14,56,23.90
2019,08,04,14,57,24.00
2019,08,04,14,58,24.00
2019,08,04,14,59,24.10
2019,08,04,15,00,24.10
2019,08,04,15,01,24.10
2019,08,04,15,02,24.10
2019,08,04,15,03,24.10
2019,08,04,15,04,24.10
2019,08,04,15,05,24.20
2019,08,04,15,06,24.20
2019,08,04,15,07,24.20
2019,08,04,15,08,24.20
2019,08,04,15,09,24.20
2019,08,04,15,10,24.20
2019,08,04,15,11,24.20
2019,08,04,15,12,24.20
2019,08,04,15,13,24.20
2019,08,04,15,14,24.30
2019,08,04,15,15,24.30
2019,08,04,15,16,24.30
2019,08,04,15,17,24.30
2019,08,04,15,18,24.30
2019,08,04,15,19,24.40
2019,08,04,15,20,24.40
2019,08,04,15,21,24.40
2019,08,04,15,22,24.40
2019,08,04,15,23,24.40
2019,08,04,15,24,24.50
2019,08,04,15,25,24.50
2019,08,04,15,26,24.60
2019,08,04,15,27,24.60
2019,08,04,15,28,24.60
2019,08,04,15,29,24.60
2019,08,04,15,30,24.70
2019,08,04,15,31,24.70
2019,08,04,15,32,24.70
2019,08,04,15,33,24.70
2019,08,04,15,34,24.80
2019,08,04,15,35,24.80
2019,08,04,15,36,24.90
2019,08,04,15,37,24.90
2019,08,04,15,38,25.00
2019,08,04,15,39,25.00
2019,08,04,15,40,25.10
2019,08,04,15,41,25.10
2019,08,04,15,42,25.10
2019,08,04,15,43,25.10
2019,08,04,15,44,25.10
2019,08,04,15,45,25.10
2019,08,04,15,46,25.10
2019,08,04,15,47,25.10
2019,08,04,15,48,25.10
2019,08,04,15,49,25.20
2019,08,04,15,50,25.20
2019,08,04,15,51,25.20
2019,08,04,15,52,25.20
2019,08,04,15,53,25.20
2019,08,04,15,54,25.20
2019,08,04,15,55,25.20
2019,08,04,15,56,25.30
2019,08,04,15,57,25.30
2019,08,04,15,58,25.30
2019,08,04,15,59,25.30
2019,08,04,16,00,25.30
2019,08,04,16,01,25.30
2019,08,04,16,02,25.30
2019,08,04,16,03,25.30
2019,08,04,16,04,25.40
2019,08,04,16,05,25.40
2019,08,04,16,06,25.40
2019,08,04,16,07,25.40
2019,08,04,16,08,25.40
2019,08,04,16,09,25.50
2019,08,04,16,10,25.50
2019,08,04,16,11,25.50
2019,08,04,16,12,25.50
2019,08,04,16,13,25.50
2019,08,04,16,14,25.40
2019,08,04,16,15,25.40
2019,08,04,16,16,25.10
2019,08,04,16,17,24.70
2019,08,04,16,18,24.30
2019,08,04,16,19,23.80
2019,08,04,16,20,23.50
2019,08,04,16,21,23.10
2019,08,04,16,22,22.80
2019,08,04,16,23,22.50
2019,08,04,16,24,22.30
2019,08,04,16,25,22.00
2019,08,04,16,26,21.70
2019,08,04,16,27,21.50
2019,08,04,16,28,21.30
2019,08,04,16,29,21.20
2019,08,04,16,30,21.10
2019,08,04,16,31,21.10
2019,08,04,16,32,21.00
2019,08,04,16,33,21.00
2019,08,04,16,34,20.90
2019,08,04,16,35,20.90
2019,08,04,16,36,21.00
2019,08,04,16,37,21.00
2019,08,04,16,38,21.10
2019,08,04,16,39,21.10
2019,08,04,16,40,21.20
2019,08,04,16,41,21.20
2019,08,04,16,42,21.30
2019,08,04,16,43,21.30
2019,08,04,16,44,21.30
2019,08,04,16,45,21.30
2019,08,04,16,46,21.20
2019,08,04,16,47,21.20
2019,08,04,16,48,21.20
2019,08,04,16,49,21.30
2019,08,04,16,50,21.30
2019,08,04,16,51,21.40
2019,08,04,16,52,21.50
2019,08,04,16,53,21.50
2019,08,04,16,54,21.60
2019,08,04,16,55,21.70
2019,08,04,16,56,21.70
2019,08,04,16,57,21.80
2019,08,04,16,58,21.80
2019,08,04,16,59,21.80
2019,08,04,17,00,21.80
2019,08,04,17,01,21.80
2019,08,04,17,02,21.90
2019,08,04,17,03,21.90
2019,08,04,17,04,22.00
2019,08,04,17,05,22.00
2019,08,04,17,06,22.10
2019,08,04,17,07,22.20
2019,08,04,17,08,22.20
2019,08,04,17,09,22.30
2019,08,04,17,10,22.30
2019,08,04,17,11,22.30
2019,08,04,17,12,22.30
2019,08,04,17,13,22.20
2019,08,04,17,14,22.00
2019,08,04,17,15,21.90
2019,08,04,17,16,21.80
2019,08,04,17,17,21.70
2019,08,04,17,18,21.60
2019,08,04,17,19,21.40